Flag Weather past 2 weeks in Herten, North Rhine-Westphalia, Germany

Now
42 °F

Overcast.


Feels Like: 40 °F
Forecast: 39 / 50 °F
Wind: 3 mph from East

Location: Essen

Current Time: Nov 21, 2014 at 8:38:06 PM

Latest Report: Nov 21, 2014 at 8:00 PM


Visibility: 11 mi

Pressure: 30.14 "Hg

Humidity: 83%

Dew point: 37 °F

Location of HertenLocation

Historic Weather in Herten — Graph

°F

Herten temperature yesterday

Maximum temperature yesterday: 45 °F (at 1:00 PM)
Minimum temperature yesterday: 40 °F (at 11:00 PM)
Average temperature yesterday: 44 °F

Past Weeks' High & Low Weather Summary

 TemperatureHumidityPressure
High56 °F (Nov 13, 3:00 PM)100% (Nov 11, 7:00 AM)30.35 "Hg (Nov 11, 7:00 AM)
Low35 °F (Nov 21, 8:00 AM)63% (Nov 9, 2:00 PM)29.50 "Hg (Nov 16, 3:00 PM)
Average48 °F88%29.83 "Hg
* Reported Nov 6 7:00 PM — Nov 21 7:00 PM, Herten, Weather by CustomWeather, © 2014

Note: Actual official high and low records may vary slightly from our data, if they occured in-between our weather recording intervals... More about our weather records

Advertising

Herten weather history for previous 24 hours

 ConditionsComfort  
Time TempWeatherWind HumidityBarometerVisibility
7:00 PM
Nov 21
40 °FPassing clouds.2 mph91%30.14 "Hg7 mi
6:00 PM42 °FPassing clouds.3 mph87%30.15 "Hg7 mi
5:00 PM44 °FPassing clouds.2 mph83%30.14 "Hg8 mi
4:00 PM47 °FSunny.3 mph72%30.16 "Hg12 mi
3:00 PM48 °FPassing clouds.3 mph67%30.16 "Hg16 mi
2:00 PM47 °FPassing clouds.5 mph69%30.17 "Hg13 mi
1:00 PM46 °FPassing clouds.3 mph70%30.19 "Hg14 mi
12:00 PM44 °FSunny.5 mph77%30.22 "Hg10 mi
11:00 AM42 °FPassing clouds.3 mph81%30.24 "Hg9 mi
10:00 AM38 °FPartly sunny.5 mph88%30.24 "Hg7 mi
9:00 AM36 °FSunny.3 mph93%30.25 "Hg6 mi
8:00 AM35 °FFog.3 mph96%30.24 "Hg4 mi
7:00 AM36 °FPassing clouds.3 mph96%30.24 "Hg5 mi
6:00 AM36 °FFog.3 mph97%30.26 "Hg4 mi
5:00 AM37 °FOvercast.2 mph94%30.27 "Hg6 mi
4:00 AM36 °FPassing clouds.3 mph96%30.29 "Hg5 mi
3:00 AM37 °FFog.3 mph97%30.30 "Hg4 mi
2:00 AM37 °FFog.2 mph99%30.30 "Hg2 mi
1:00 AM39 °FFog.2 mph97%30.32 "Hg4 mi
12:00 AM39 °FFog.2 mph96%30.32 "Hg4 mi
11:00 PM
Nov 20
40 °FPassing clouds.2 mph91%30.33 "Hg6 mi
10:00 PM41 °FClear.3 mph89%30.33 "Hg7 mi
9:00 PM42 °FClear.3 mph88%30.33 "Hg7 mi
8:00 PM43 °FOvercast.2 mph87%30.33 "Hg7 mi
Weather by CustomWeather, © 2014

See weather overviewHow to use our weather pages